Yiewsley, United Kingdom

8:55 PM BST on July 25, 2017 (GMT +0100)
Yiewsley

Weather History for 03772 - June, 2013

Change the Weather History Date:

Thursday, June 13, 2013

  Actual Average Record
Temperature  
Mean Temperature 60 °F -  
Max Temperature 66 °F 69 °F - ()
Min Temperature 53 °F 53 °F - ()
Degree Days  
Heating Degree Days 4    
Growing Degree Days 10 (Base 50)    
Moisture  
Dew Point 50 °F    
Average Humidity 73    
Maximum Humidity 94    
Minimum Humidity 44    
Precipitation  
Precipitation 0.00 in - - ()
Sea Level Pressure  
Sea Level Pressure 29.86 in    
Wind  
Wind Speed 15 mph ()    
Max Wind Speed 29 mph    
Max Gust Speed 39 mph    
Visibility 6.7 miles    
Events Rain    
T = Trace of Precipitation, MM = Missing Value Source: Averaged Metar Reports

Daily Weather History Graph

Daily Weather History Graph

Search for Another Location

Airport or City:

Trip Planner

Search our weather history database for the weather conditions in past years. The results will help you decide how hot, cold, wet, or windy it might be!

Date:

Astronomy

Jun. 13, 2013 Rise Set
Actual Time 4:44 AM BST 9:19 PM BST
Civil Twilight 3:57 AM BST 10:07 PM BST
Nautical Twilight 2:44 AM BST 11:20 PM BST
Astronomical Twilight 1:34 AM BST 12:29 AM BST
Moon 9:33 AM BST (6/13) 11:47 PM BST (6/13)
Length of Visible Light 18h 09m
Length of Day
16h 35m
Waxing Crescent, 20% of the Moon is Illuminated
Jun 13
Waxing Crescent
Jun 16
First Quarter
Jun 23
Full
Jun 30
Last Quarter
Jul 8
New

Hourly Weather History & Observations

Time (BST) Temp. Dew Point Humidity Pressure Visibility Wind Dir Wind Speed Gust Speed Precip Events Conditions
12:20 AM 59.0 °F 55.4 °F 88% 29.83 in 6.2 mi SSW 13.8 mph - N/A   Scattered Clouds
12:50 AM 58 °F 52 °F 75% 29.84 in 12 mi SSW 16.1 mph - -   Partly Cloudy
12:50 AM 57.2 °F 53.6 °F 88% 29.83 in 6.2 mi SW 15.0 mph - N/A   Scattered Clouds
1:20 AM 57.2 °F 51.8 °F 82% 29.83 in 6.2 mi SW 16.1 mph - N/A   Mostly Cloudy
1:50 AM 57.2 °F 51.8 °F 82% 29.80 in 6.2 mi SW 15.0 mph - N/A   Mostly Cloudy
2:20 AM 57.2 °F 51.8 °F 82% 29.80 in 6.2 mi SW 12.7 mph - N/A   Overcast
2:50 AM 57.2 °F 51.8 °F 82% 29.80 in 6.2 mi SW 12.7 mph - N/A   Mostly Cloudy
3:20 AM 57.2 °F 50.0 °F 77% 29.80 in 6.2 mi SW 16.1 mph - N/A   Mostly Cloudy
3:50 AM 57 °F 50 °F 71% 29.80 in 11 mi SSW 16.1 mph - -   Scattered Clouds
3:50 AM 57.2 °F 50.0 °F 77% 29.80 in 6.2 mi SW 13.8 mph - N/A   Mostly Cloudy
4:20 AM 57.2 °F 50.0 °F 77% 29.80 in 6.2 mi SW 18.4 mph - N/A   Scattered Clouds
4:50 AM 57.2 °F 50.0 °F 77% 29.80 in 6.2 mi SW 17.3 mph - N/A   Scattered Clouds
5:20 AM 57.2 °F 50.0 °F 77% 29.80 in 6.2 mi SW 16.1 mph - N/A   Scattered Clouds
5:50 AM 55.4 °F 50.0 °F 82% 29.80 in 6.2 mi SW 13.8 mph - N/A   Scattered Clouds
6:20 AM 55.4 °F 50.0 °F 82% 29.80 in 6.2 mi SW 13.8 mph - N/A   Mostly Cloudy
6:50 AM 56 °F 51 °F 76% 29.80 in 14 mi SSW 16.1 mph - - Rain Rain
6:50 AM 55.4 °F 51.8 °F 88% 29.80 in 6.2 mi SSW 15.0 mph - N/A   Mostly Cloudy
7:20 AM 55.4 °F 51.8 °F 88% 29.80 in 6.2 mi SW 16.1 mph - N/A   Mostly Cloudy
7:50 AM 55.4 °F 51.8 °F 88% 29.80 in 5.0 mi SW 15.0 mph - N/A   Mostly Cloudy
8:20 AM 55.4 °F 53.6 °F 94% 29.80 in 5.0 mi SW 16.1 mph - N/A   Light Drizzle
8:50 AM 57.2 °F 53.6 °F 88% 29.80 in 5.6 mi SW 15.0 mph - N/A   Mostly Cloudy
9:20 AM 57.2 °F 51.8 °F 82% 29.80 in 6.2 mi SW 15.0 mph - N/A   Mostly Cloudy
9:50 AM 57 °F 52 °F 77% 29.80 in 13 mi SSW 18.4 mph - - Rain Rain
9:50 AM 57.2 °F 53.6 °F 88% 29.80 in 6.2 mi SW 13.8 mph - N/A   Mostly Cloudy
10:20 AM 57.2 °F 53.6 °F 88% 29.80 in 6.2 mi SW 15.0 mph - N/A   Scattered Clouds
10:50 AM 57.2 °F 53.6 °F 88% 29.80 in 5.0 mi SW 13.8 mph - N/A Rain Light Rain Showers
11:20 AM 59.0 °F 53.6 °F 82% 29.80 in 6.2 mi SW 15.0 mph 26.5 mph N/A   Scattered Clouds
11:50 AM 59.0 °F 53.6 °F 82% 29.80 in 6.2 mi SW 18.4 mph - N/A   Mostly Cloudy
12:20 PM 59.0 °F 51.8 °F 77% 29.83 in 6.2 mi SW 18.4 mph - N/A   Mostly Cloudy
12:50 PM 60 °F 51 °F 64% 29.83 in 25 mi SW 20.7 mph - - Rain Rain
12:50 PM 59.0 °F 51.8 °F 77% 29.83 in 6.2 mi SW 19.6 mph 31.1 mph N/A   Mostly Cloudy
1:20 PM 60.8 °F 51.8 °F 72% 29.83 in 6.2 mi SW 20.7 mph - N/A   Mostly Cloudy
1:50 PM 60.8 °F 51.8 °F 72% 29.83 in 6.2 mi SW 24.2 mph - N/A   Mostly Cloudy
2:20 PM 60.8 °F 53.6 °F 77% 29.83 in 6.2 mi WSW 21.9 mph - N/A Rain Light Rain Showers
2:50 PM 62.6 °F 51.8 °F 68% 29.83 in 6.2 mi WSW 19.6 mph - N/A   Scattered Clouds
3:20 PM 66.2 °F 51.8 °F 60% 29.83 in 6.2 mi WSW 26.5 mph - N/A   Scattered Clouds
3:50 PM 64 °F 47 °F 44% 29.86 in 22 mi West 28.8 mph - -   Scattered Clouds
3:50 PM 64.4 °F 48.2 °F 56% 29.86 in 6.2 mi West 24.2 mph - N/A   Scattered Clouds
4:20 PM 60.8 °F 48.2 °F 63% 29.86 in 6.2 mi West 25.3 mph 39.1 mph N/A   Mostly Cloudy
4:50 PM 60.8 °F 50.0 °F 68% 29.89 in 6.2 mi West 26.5 mph - N/A   Scattered Clouds
5:20 PM 64.4 °F 48.2 °F 56% 29.89 in 6.2 mi West 26.5 mph - N/A   Scattered Clouds
5:50 PM 62.6 °F 48.2 °F 59% 29.92 in 6.2 mi West 21.9 mph - N/A   Partly Cloudy
6:20 PM 60.8 °F 46.4 °F 59% 29.92 in 6.2 mi West 19.6 mph - N/A   Mostly Cloudy
6:50 PM 60 °F 47 °F 52% 29.94 in 25 mi West 20.7 mph - -   Mostly Cloudy
6:50 PM 60.8 °F 46.4 °F 59% 29.95 in 6.2 mi West 20.7 mph - N/A   Partly Cloudy
7:20 PM 60.8 °F 46.4 °F 59% 29.95 in 6.2 mi West 20.7 mph - N/A   Partly Cloudy
7:50 PM 60.8 °F 46.4 °F 59% 29.98 in 6.2 mi West 15.0 mph - N/A   Partly Cloudy
8:20 PM 59.0 °F 44.6 °F 59% 29.98 in - West 13.8 mph - N/A   Clear
8:50 PM 59.0 °F 44.6 °F 59% 29.98 in - West 15.0 mph - N/A   Clear
9:20 PM 57.2 °F 44.6 °F 63% 30.01 in - West 16.1 mph - N/A   Clear
9:50 PM 56 °F 44 °F 55% 30.02 in 22 mi West 13.8 mph - -  
9:50 PM 57.2 °F 44.6 °F 63% 30.01 in - West 12.7 mph - N/A   Clear
10:20 PM 55.4 °F 44.6 °F 67% 30.04 in - West 17.3 mph - N/A   Clear
10:50 PM 55.4 °F 44.6 °F 67% 30.04 in - West 15.0 mph - N/A   Clear
11:20 PM 55.4 °F 46.4 °F 72% 30.04 in - West 13.8 mph - N/A   Clear
11:50 PM 53.6 °F 46.4 °F 77% 30.04 in - West 15.0 mph - N/A   Clear